Location: Clair
(33.8067°N, 117.9845°W)
Time: 08:29:05
(UTC+00:00)

Cosmos 2123 Rocket - Pass Details

Date: 14 February 2026
Orbit: 960 x 992 km, 82.9° (Epoch: 12 March)

Event Time Altitude Azimuth Distance (km) Brightness Sun altitude
Rises 12:23:16 0° 355° (N) 3,669 7.0 -28.4°
Reaches altitude 10° 12:25:48 10° 358° (N) 2,714 6.3 -27.9°
Maximum altitude 12:32:00 76° 83° (E) 995 4.1 -26.6°
Drops below altitude 10° 12:38:08 10° 169° (S) 2,684 6.4 -25.3°
Sets 12:40:38 0° 171° (S) 3,625 7.1 -24.8°
